N7NIP Weather Reports


time (UTC)temp
C
wind
direction
speed
KPH
gust
KPH
rain 1hr
cm
rain 24hr
cm
rain mn
cm
humidity
%
barometer
mb
20260506221807 14 63 3.2 6.4 0.00 0.00 0.00 78 1034.7
20260506221304 14 280 4.8 11.3 0.00 0.00 0.00 76 1034.8
20260506220802 14 153 6.4 16.1 0.00 0.00 0.00 76 1034.8
20260506220301 14 295 9.7 14.5 0.00 0.00 0.00 78 1034.8
20260506215758 14 283 11.3 12.9 0.00 0.00 0.00 76 1034.6
20260506215254 15 140 6.4 8.0 0.00 0.00 0.00 78 1034.6
20260506214750 15 189 1.6 16.1 0.00 0.00 0.00 77 1034.7
20260506214248 15 154 4.8 17.7 0.00 0.00 0.00 77 1034.7
20260506213746 15 206 3.2 12.9 0.00 0.00 0.00 77 1034.7
20260506213243 15 224 3.2 9.7 0.00 0.00 0.00 75 1034.6
20260506212740 15 282 3.2 9.7 0.00 0.00 0.00 78 1034.7
20260506212236 15 210 4.8 8.0 0.00 0.00 0.00 74 1034.6
20260506211731 15 197 3.2 12.9 0.00 0.00 0.00 76 1034.6
20260506211228 15 310 0.0 8.0 0.00 0.00 0.00 77 1034.7
20260506210725 15 19 0.0 6.4 0.00 0.00 0.00 76 1034.6
20260506210222 15 234 4.8 14.5 0.00 0.00 0.00 76 1034.8
20260506205719 15 229 3.2 4.8 0.00 0.00 0.00 77 1034.6
20260506205214 15 248 3.2 6.4 0.00 0.00 0.00 80 1034.6
20260506204711 14 290 1.6 6.4 0.00 0.00 0.00 80 1034.6
20260506204208 13 190 0.0 4.8 0.00 0.00 0.00 80 1034.5
20260506203707 13 301 0.0 8.0 0.00 0.00 0.00 82 1034.8
20260506203203 13 172 6.4 11.3 0.00 0.00 0.00 82 1034.7
20260506202701 13 172 0.0 6.4 0.00 0.00 0.00 82 1034.6
20260506202156 13 105 3.2 6.4 0.00 0.00 0.00 85 1034.7
20260506201654 13 185 3.2 6.4 0.00 0.00 0.00 86 1034.6
20260506201150 13 151 4.8 11.3 0.00 0.00 0.00 86 1034.6
20260506200647 12 133 12.9 12.9 0.00 0.00 0.00 87 1034.7
20260506200144 12 287 0.0 9.7 0.00 0.00 0.00 87 1034.7
20260506195641 12 198 0.0 9.7 0.00 0.00 0.00 88 1034.9
20260506195137 12 241 4.8 9.7 0.00 0.00 0.00 87 1034.8
20260506194634 12 133 14.5 16.1 0.00 0.00 0.00 87 1034.5
20260506194130 13 278 0.0 4.8 0.00 0.00 0.00 87 1034.5
20260506193628 13 66 0.0 4.8 0.00 0.00 0.00 87 1034.6
20260506193125 13 133 9.7 11.3 0.00 0.00 0.00 86 1034.4
20260506192622 13 170 3.2 6.4 0.00 0.00 0.00 88 1034.3
20260506192118 13 204 3.2 9.7 0.00 0.00 0.00 89 1034.4
20260506191615 12 47 0.0 6.4 0.00 0.00 0.00 89 1034.4
20260506191111 12 206 3.2 8.0 0.00 0.00 0.00 89 1034.6
20260506190609 12 111 6.4 9.7 0.00 0.00 0.00 90 1034.4
20260506190105 12 222 3.2 8.0 0.00 0.00 0.00 88 1034.4
20260506185602 12 159 0.0 6.4 0.00 0.00 0.00 89 1034.6
20260506185059 12 110 3.2 3.2 0.00 0.00 0.00 89 1034.2
20260506184556 12 279 0.0 6.4 0.00 0.00 0.00 89 1034.4
20260506184053 12 189 0.0 4.8 0.00 0.00 0.00 90 1034.3
20260506183549 12 153 3.2 9.7 0.00 0.00 0.00 91 1034.3
20260506183046 12 273 1.6 4.8 0.00 0.00 0.00 91 1034.2
20260506182543 12 102 6.4 9.7 0.00 0.00 0.00 91 1033.9
20260506182040 12 188 1.6 3.2 0.00 0.00 0.00 91 1034.4
20260506181538 12 218 0.0 3.2 0.00 0.00 0.00 90 1034.4
20260506181035 12 131 4.8 12.9 0.00 0.00 0.00 91 1034.2
20260506180531 12 7 0.0 3.2 0.00 0.00 0.00 91 1034.0
20260506180028 12 325 4.8 4.8 0.00 0.00 0.00 91 1034.3
20260506175525 12 94 3.2 6.4 0.00 0.00 0.00 91 1034.1
20260506175021 12 108 6.4 9.7 0.00 0.00 0.00 91 1034.0
20260506174520 12 61 0.0 0.0 0.00 0.00 0.00 93 1033.9
20260506174015 12 97 3.2 9.7 0.00 0.00 0.00 93 1033.8
20260506173513 12 115 6.4 6.4 0.00 0.00 0.00 93 1033.9
20260506173010 12 129 3.2 4.8 0.00 0.00 0.00 93 1034.0
20260506172508 12 178 4.8 6.4 0.00 0.00 0.00 92 1034.1
20260506172003 12 111 4.8 6.4 0.00 0.00 0.00 92 1034.1
20260506171502 12 85 3.2 4.8 0.00 0.00 0.00 93 1034.2
20260506170959 12 116 3.2 4.8 0.00 0.00 0.00 92 1034.1
20260506170455 12 124 1.6 6.4 0.00 0.00 0.00 93 1034.1
20260506165954 12 77 3.2 6.4 0.00 0.00 0.00 93 1034.2
20260506165452 12 98 3.2 3.2 0.00 0.00 0.00 93 1034.2
20260506164947 12 94 1.6 3.2 0.00 0.00 0.00 94 1034.1
20260506164444 12 257 3.2 4.8 0.00 0.00 0.00 93 1034.0
20260506163942 12 138 1.6 4.8 0.00 0.00 0.00 93 1034.1
20260506163437 12 69 0.0 3.2 0.00 0.00 0.00 93 1033.9
20260506162932 12 129 3.2 6.4 0.00 0.00 0.00 94 1033.9
20260506162430 12 103 4.8 6.4 0.00 0.00 0.00 95 1033.9
20260506161927 12 43 1.6 3.2 0.00 0.00 0.00 95 1033.8
20260506161426 11 83 3.2 4.8 0.00 0.00 0.00 95 1033.8
20260506160923 11 115 1.6 3.2 0.00 0.00 0.00 96 1033.8
20260506160420 11 130 6.4 9.7 0.00 0.00 0.00 96 1033.7
20260506155917 11 60 4.8 6.4 0.00 0.00 0.00 97 1033.8
20260506155414 11 49 4.8 4.8 0.00 0.00 0.00 97 1033.5
20260506153531 11 125 4.8 4.8 0.00 0.00 0.00 97 1033.6
20260506153028 11 80 3.2 6.4 0.00 0.00 0.00 98 1033.6
20260506152525 11 92 3.2 4.8 0.00 0.00 0.00 97 1033.9
20260506152023 11 94 4.8 4.8 0.00 0.00 0.00 97 1033.9
20260506151520 11 67 3.2 4.8 0.00 0.00 0.00 98 1034.0
20260506151018 11 105 3.2 4.8 0.00 0.00 0.00 98 1033.8
20260506150514 11 7 0.0 4.8 0.00 0.00 0.00 98 1033.9
20260506150011 11 83 3.2 4.8 0.00 0.00 0.00 98 1033.7
20260506145507 11 122 3.2 8.0 0.00 0.00 0.00 98 1033.8
20260506145005 11 53 3.2 4.8 0.00 0.00 0.00 98 1033.4
20260506144502 11 105 4.8 6.4 0.00 0.00 0.00 99 1033.6
20260506143959 11 83 3.2 6.4 0.00 0.00 0.00 99 1033.5
20260506143456 11 66 3.2 4.8 0.00 0.00 0.00 99 1033.5
20260506142955 11 92 3.2 4.8 0.00 0.00 0.00 99 1033.7
20260506142452 11 88 3.2 4.8 0.00 0.00 0.00 99 1033.5
20260506141950 11 86 3.2 6.4 0.00 0.00 0.00 99 1033.3
20260506141448 11 92 0.0 4.8 0.00 0.00 0.00 99 1033.4
20260506140946 11 72 4.8 4.8 0.00 0.00 0.00 99 1033.4
20260506140443 11 98 3.2 4.8 0.00 0.00 0.00 99 1033.4
20260506135939 11 96 3.2 4.8 0.00 0.00 0.00 99 1033.4
20260506135437 11 86 1.6 3.2 0.00 0.00 0.00 99 1033.2
20260506134932 11 92 3.2 3.2 0.00 0.00 0.00 99 1033.5
20260506134429 11 96 3.2 4.8 0.00 0.00 0.00 99 1033.4
20260506133926 11 56 3.2 4.8 0.00 0.00 0.00 99 1033.5
20260506133423 10 51 3.2 3.2 0.00 0.00 0.00 99 1033.3
20260506132920 10 82 3.2 4.8 0.00 0.00 0.00 99 1033.2
20260506132417 10 58 3.2 4.8 0.00 0.00 0.00 99 1033.3
20260506131914 10 70 1.6 3.2 0.00 0.00 0.00 99 1033.2
20260506131410 10 36 3.2 3.2 0.00 0.00 0.00 99 1033.2
20260506130908 10 43 0.0 4.8 0.00 0.00 0.00 99 1033.1
20260506130404 10 97 3.2 4.8 0.00 0.00 0.00 99 1032.9
20260506125902 10 75 1.6 4.8 0.00 0.00 0.00 99 1033.0
20260506125400 10 125 3.2 4.8 0.00 0.00 0.00 99 1032.7
20260506124858 10 66 3.2 4.8 0.00 0.00 0.00 99 1032.8
20260506124355 10 81 3.2 4.8 0.00 0.00 0.00 99 1032.8
20260506123853 10 78 3.2 4.8 0.00 0.00 0.00 99 1032.8
20260506123351 10 65 0.0 4.8 0.00 0.00 0.00 99 1032.8
20260506122848 11 89 3.2 4.8 0.00 0.00 0.00 99 1032.7
20260506122344 11 61 3.2 3.2 0.00 0.00 0.00 99 1032.9
20260506121843 11 70 3.2 3.2 0.00 0.00 0.00 99 1032.7
20260506121340 11 84 3.2 4.8 0.00 0.00 0.00 99 1032.8
20260506120837 11 68 3.2 3.2 0.00 0.00 0.00 99 1032.7
20260506120334 11 55 3.2 4.8 0.00 0.00 0.00 99 1032.6
20260506115831 11 73 3.2 4.8 0.00 0.00 0.00 99 1032.7
20260506115330 11 93 3.2 6.4 0.00 0.00 0.00 99 1032.8
20260506114827 11 83 3.2 3.2 0.00 0.00 0.00 99 1032.8
20260506114325 11 86 3.2 4.8 0.00 0.00 0.00 99 1032.6
20260506113823 11 86 3.2 4.8 0.00 0.00 0.00 99 1032.7
20260506113320 11 84 3.2 3.2 0.00 0.00 0.00 99 1032.5
20260506112817 11 61 1.6 4.8 0.00 0.00 0.00 99 1032.5
20260506112314 10 75 3.2 4.8 0.00 0.00 0.00 99 1032.4
20260506111812 10 93 1.6 4.8 0.00 0.00 0.00 99 1032.3
20260506111309 10 84 4.8 4.8 0.00 0.00 0.00 99 1032.3
20260506110807 10 92 3.2 4.8 0.00 0.00 0.00 99 1032.3
20260506110304 10 96 3.2 3.2 0.00 0.00 0.00 99 1032.3
20260506105800 10 111 3.2 3.2 0.00 0.00 0.00 99 1032.2
20260506105257 10 80 4.8 4.8 0.00 0.00 0.00 99 1032.0
20260506104755 10 88 3.2 3.2 0.00 0.00 0.00 99 1031.8
20260506104252 10 93 3.2 4.8 0.00 0.00 0.00 99 1031.9
20260506103750 10 120 3.2 4.8 0.00 0.00 0.00 99 1031.9
20260506103247 10 94 3.2 3.2 0.00 0.00 0.00 99 1032.1
20260506102744 10 94 3.2 3.2 0.00 0.00 0.00 99 1031.9
20260506102242 10 70 1.6 3.2 0.00 0.00 0.00 99 1031.9
20260506101739 10 106 3.2 4.8 0.00 0.00 0.00 99 1031.8
20260506101235 10 91 1.6 3.2 0.00 0.00 0.00 99 1031.9
20260506100733 10 94 3.2 3.2 0.00 0.00 0.00 99 1031.8
20260506100231 10 86 3.2 3.2 0.00 0.00 0.00 99 1031.8
20260506095730 10 110 3.2 3.2 0.00 0.00 0.00 99 1031.5
20260506095226 10 88 1.6 3.2 0.00 0.00 0.00 99 1031.7
20260506094723 10 72 3.2 3.2 0.00 0.00 0.00 99 1031.6
20260506094221 10 70 3.2 3.2 0.00 0.00 0.00 99 1031.7
20260506093720 10 87 1.6 1.6 0.00 0.00 0.00 99 1031.5
20260506093216 10 89 0.0 3.2 0.00 0.00 0.00 99 1031.6
20260506092714 10 106 3.2 3.2 0.00 0.00 0.00 99 1031.6
20260506092211 9 124 1.6 3.2 0.00 0.00 0.00 99 1031.5
20260506091709 9 102 1.6 3.2 0.00 0.00 0.00 99 1031.5
20260506091206 9 107 3.2 3.2 0.00 0.00 0.00 99 1031.4
20260506090704 10 111 3.2 3.2 0.00 0.00 0.00 99 1031.4
20260506090200 10 114 3.2 3.2 0.00 0.00 0.00 99 1031.5
20260506085658 10 110 3.2 3.2 0.00 0.00 0.00 99 1031.5
20260506085153 10 98 3.2 3.2 0.00 0.00 0.00 99 1031.4
20260506084650 10 92 3.2 3.2 0.00 0.00 0.00 99 1031.5
20260506084147 10 93 3.2 4.8 0.00 0.00 0.00 99 1031.1
20260506083644 10 99 3.2 3.2 0.00 0.00 0.00 99 1031.3
20260506083142 10 87 3.2 3.2 0.00 0.00 0.00 99 1031.2
20260506082638 10 93 1.6 3.2 0.00 0.00 0.00 99 1031.3
20260506082134 10 93 3.2 3.2 0.00 0.00 0.00 99 1031.0
20260506081632 10 80 3.2 4.8 0.00 0.00 0.00 99 1031.0
20260506081129 10 92 3.2 3.2 0.00 0.00 0.00 99 1031.0
20260506080627 10 105 1.6 3.2 0.00 0.00 0.00 99 1030.8
20260506080123 10 87 0.0 3.2 0.00 0.00 0.00 99 1031.2
20260506073107 10 85 3.2 3.2 0.00 0.00 0.00 99 1030.9
20260506072604 10 95 3.2 3.2 0.00 0.00 0.00 99 1030.9
20260506072102 10 99 3.2 3.2 0.00 0.00 0.00 99 1030.7
20260506071559 10 106 3.2 3.2 0.00 0.00 0.00 99 1030.8
20260506071057 10 93 1.6 3.2 0.00 0.00 0.00 98 1030.9
20260506070554 10 113 3.2 4.8 0.00 0.00 0.00 98 1030.7
20260506062033 10 125 3.2 3.2 0.00 0.00 0.00 98 1030.4
20260506061529 10 92 3.2 3.2 0.00 0.00 0.00 98 1030.6
20260506061027 10 89 3.2 3.2 0.00 0.00 0.00 98 1030.7
20260506060525 10 76 3.2 3.2 0.00 0.00 0.00 98 1030.4
20260506050954 11 101 1.6 3.2 0.00 0.00 0.00 96 1030.0
20260506050452 11 104 3.2 3.2 0.00 0.00 0.00 96 1030.0
20260506044942 11 82 3.2 3.2 0.00 0.00 0.00 95 1030.1
20260506044440 11 116 1.6 3.2 0.00 0.00 0.00 95 1030.2
20260506043937 11 119 3.2 3.2 0.00 0.00 0.00 94 1029.8
20260506043434 12 95 1.6 1.6 0.00 0.00 0.00 94 1029.7
20260506042932 12 129 0.0 3.2 0.00 0.00 0.00 94 1029.6
20260506042431 12 135 0.0 3.2 0.00 0.00 0.00 93 1029.7
20260506041929 12 118 3.2 3.2 0.00 0.00 0.00 93 1029.6
20260506041426 12 115 3.2 3.2 0.00 0.00 0.00 93 1029.5
20260506040923 12 75 1.6 3.2 0.00 0.00 0.00 92 1029.7
20260506040421 12 60 3.2 3.2 0.00 0.00 0.00 92 1029.5
20260506035916 12 103 3.2 3.2 0.00 0.00 0.00 92 1029.4
20260506035414 12 59 1.6 3.2 0.00 0.00 0.00 91 1029.5
20260506034911 12 85 0.0 3.2 0.00 0.00 0.00 90 1029.5
20260506034408 12 80 0.0 1.6 0.00 0.00 0.00 90 1029.5
20260506033905 12 88 3.2 3.2 0.00 0.00 0.00 89 1029.4
20260506033402 12 83 1.6 1.6 0.00 0.00 0.00 89 1029.4
20260506032859 12 84 1.6 3.2 0.00 0.00 0.00 88 1029.2
20260506032356 13 67 1.6 3.2 0.00 0.00 0.00 87 1029.4
20260506031853 13 86 1.6 1.6 0.00 0.00 0.00 86 1029.2
20260506031350 13 123 1.6 1.6 0.00 0.00 0.00 86 1029.3
20260506030848 13 66 3.2 3.2 0.00 0.00 0.00 85 1029.1
20260506030346 13 100 0.0 3.2 0.00 0.00 0.00 84 1029.1
20260506025842 14 89 1.6 3.2 0.00 0.00 0.00 84 1029.3
20260506025338 14 77 1.6 3.2 0.00 0.00 0.00 83 1029.1
20260506024836 15 77 0.0 3.2 0.00 0.00 0.00 81 1029.2
20260506024332 15 78 0.0 3.2 0.00 0.00 0.00 80 1029.2
20260506023829 15 102 0.0 1.6 0.00 0.00 0.00 79 1029.1
20260506023325 15 79 3.2 3.2 0.00 0.00 0.00 77 1029.1
20260506022822 16 52 3.2 3.2 0.00 0.00 0.00 76 1029.3
20260506022320 16 51 3.2 3.2 0.00 0.00 0.00 74 1029.1
20260506021818 16 60 3.2 4.8 0.00 0.00 0.00 73 1029.1
20260506021314 16 82 3.2 6.4 0.00 0.00 0.00 71 1028.9
20260506020811 16 84 3.2 3.2 0.00 0.00 0.00 72 1029.1
20260506020309 16 128 1.6 1.6 0.00 0.00 0.00 70 1028.9
20260506015807 17 175 3.2 3.2 0.00 0.00 0.00 71 1029.2
20260506015306 17 318 4.8 4.8 0.00 0.00 0.00 67 1029.1
20260506014800 18 22 3.2 3.2 0.00 0.00 0.00 64 1028.9
20260506014257 18 58 1.6 3.2 0.00 0.00 0.00 64 1029.1
20260506013754 18 228 0.0 3.2 0.00 0.00 0.00 65 1029.3
20260506013251 17 114 3.2 8.0 0.00 0.00 0.00 66 1029.0
20260506012748 17 121 3.2 4.8 0.00 0.00 0.00 66 1029.1
20260506012245 17 132 4.8 6.4 0.00 0.00 0.00 67 1029.1
20260506011742 17 160 3.2 9.7 0.00 0.00 0.00 67 1029.2
20260506011238 18 103 3.2 4.8 0.00 0.00 0.00 66 1029.1
20260506010737 17 118 4.8 6.4 0.00 0.00 0.00 66 1029.1
20260506010234 17 147 4.8 8.0 0.00 0.00 0.00 68 1029.2
20260506005731 18 324 0.0 4.8 0.00 0.00 0.00 66 1029.3
20260506005227 18 137 6.4 9.7 0.00 0.00 0.00 64 1029.3
20260506004723 18 111 3.2 4.8 0.00 0.00 0.00 65 1029.3
20260506004221 18 357 1.6 4.8 0.00 0.00 0.00 67 1029.2
20260506003717 18 157 4.8 8.0 0.00 0.00 0.00 66 1029.1
20260506003214 18 280 3.2 6.4 0.00 0.00 0.00 66 1029.4
20260506002709 17 60 4.8 6.4 0.00 0.00 0.00 71 1029.4
20260506002206 17 9 1.6 6.4 0.00 0.00 0.00 70 1029.4
20260506001701 18 203 3.2 6.4 0.00 0.00 0.00 67 1029.5
20260506001159 17 0 1.6 4.8 0.00 0.00 0.00 68 1029.3
20260506000656 17 129 0.0 6.4 0.00 0.00 0.00 69 1029.4
20260506000154 16 184 0.0 3.2 0.00 0.00 0.00 72 1029.6
20260505235651 16 269 4.8 4.8 0.00 0.00 0.00 73 1029.6
20260505235149 16 166 4.8 11.3 0.00 0.00 0.00 74 1029.8
20260505234645 16 183 0.0 3.2 0.00 0.00 0.00 73 1029.7
20260505234142 16 221 3.2 6.4 0.00 0.00 0.00 75 1029.8
20260505233639 16 164 1.6 8.0 0.00 0.00 0.00 74 1030.0
20260505233137 16 0 0.0 6.4 0.00 0.00 0.00 76 1029.8
20260505232634 15 115 3.2 4.8 0.00 0.00 0.00 75 1030.0
20260505232132 15 3 0.0 4.8 0.00 0.00 0.00 76 1029.8
20260505231628 16 199 1.6 8.0 0.00 0.00 0.00 76 1030.1
20260505231127 15 116 4.8 6.4 0.00 0.00 0.00 76 1030.0
20260505230625 15 341 0.0 4.8 0.00 0.00 0.00 77 1030.0
20260505230121 15 11 4.8 4.8 0.00 0.00 0.00 76 1030.3
20260505225617 15 85 3.2 8.0 0.00 0.00 0.00 77 1030.1
20260505225114 15 125 1.6 6.4 0.00 0.00 0.00 75 1030.2
20260505224610 15 136 6.4 6.4 0.00 0.00 0.00 77 1030.1
20260505224108 15 80 4.8 6.4 0.00 0.00 0.00 76 1030.3
20260505223605 15 60 3.2 3.2 0.00 0.00 0.00 76 1030.3
20260505223101 15 115 1.6 3.2 0.00 0.00 0.00 76 1030.2
20260505222557 15 148 3.2 14.5 0.00 0.00 0.00 77 1030.2